Location: Peterborough
(44.3091°N, 78.3197°W)
Time: 05:00:48
(UTC-04:00)

Altair - Visible Passes

Search period start: 22 March 2023 00:00
Search period end: 01 April 2023 00:00
Orbit: 1501 x 1682 km, 47.2° (Epoch: 21 March)

Date Brightness Start Highest point End Pass type
(mag) Time Alt. Az. Time Alt. Az. Time Alt. Az.
22 Mar 9.5 05:12:19 10° SSE 05:17:05 15° SE 05:21:48 10° E visible
23 Mar 9.5 04:48:07 10° SSE 04:52:04 13° ESE 04:55:58 10° E visible
24 Mar 9.6 04:24:17 10° SE 04:27:03 12° ESE 04:29:48 10° ESE visible
24 Mar 8.4 06:21:09 10° SSW 06:29:54 45° SE 06:38:27 10° ENE visible
25 Mar 8.4 05:56:10 10° SSW 06:04:48 42° SE 06:13:14 10° ENE visible
26 Mar 8.5 05:31:12 10° SSW 05:39:42 39° SE 05:48:00 10° ENE visible
27 Mar 8.5 05:06:55 12° SSW 05:14:37 36° SE 05:22:45 10° ENE visible
28 Mar 8.6 04:43:24 17° S 04:49:32 33° SE 04:57:29 10° ENE visible
29 Mar 8.6 04:19:48 21° S 04:24:27 31° SE 04:32:11 10° ENE visible
29 Mar 7.6 06:18:45 10° WSW 06:28:12 77° SSE 06:37:24 10° ENE visible
30 Mar 8.6 03:56:08 23° SSE 03:59:22 28° SE 04:06:52 10° ENE visible
30 Mar 7.6 05:54:09 12° SW 06:03:02 73° SSE 06:12:13 10° ENE visible
31 Mar 8.7 03:32:23 24° SSE 03:34:18 26° SE 03:41:32 10° E visible
31 Mar 7.6 05:30:24 18° SW 05:37:52 70° SSE 05:47:02 10° ENE visible
